START_TIME,STEP,MOV.,M15,t_acc.,M20,t_acc.
1979-07-20 15:00:43.670 ,0,0,0.,24.0,0.,24.0
1979-07-20 15:01:07.670 ,2,1,0.,24.0,0.,24.0
1979-07-20 15:01:31.670 ,2,0,0.,24.0,0.,24.0
1979-07-20 15:01:55.670 ,3,1,0.,24.0,0.,24.0
1979-07-20 15:02:19.670 ,3,0,0.,24.0,0.,24.0
1979-07-20 15:02:43.670 ,4,1,0.,24.0,0.,24.0
1979-07-20 15:03:07.670 ,4,0,0.,24.0,0.,24.0
1979-07-20 15:03:31.670 ,5,1,0.,24.0,0.,24.0
1979-07-20 15:03:55.670 ,5,0,0.,24.0,0.,24.0
1979-07-20 15:04:19.670 ,6,1,0.,24.0,0.,24.0
1979-07-20 15:04:43.670 ,6,0,0.,24.0,0.,24.0
1979-07-20 15:05:07.670 ,7,1,0.,24.0,0.,24.0
1979-07-20 15:05:31.670 ,7,0,0.,24.0,0.,24.0
1979-07-20 15:05:55.670 ,7,1,0.,24.0,0.,24.0
1979-07-20 15:06:19.670 ,7,0,0.,24.0,0.,24.0
1979-07-20 15:06:43.670 ,6,1,0.,24.0,0.,24.0
1979-07-20 15:07:07.670 ,6,0,0.,24.0,0.,24.0
1979-07-20 15:07:31.670 ,5,1,0.,24.0,0.,24.0
1979-07-20 15:07:55.670 ,5,0,0.,24.0,0.,24.0
1979-07-20 15:08:19.670 ,4,1,0.,24.0,0.,24.0
1979-07-20 15:08:43.670 ,4,0,0.,24.0,0.,24.0
1979-07-20 15:09:07.670 ,3,1,0.,24.0,0.,24.0
1979-07-20 15:09:31.670 ,3,0,0.,24.0,0.,24.0
1979-07-20 15:09:55.670 ,2,1,0.,24.0,0.,24.0
1979-07-20 15:10:19.670 ,2,0,0.,24.0,0.,24.0
1979-07-20 15:10:43.670 ,1,1,0.,24.0,0.,24.0
1979-07-20 15:11:07.670 ,1,0,0.,24.0,0.,24.0
1979-07-20 15:11:31.670 ,0,1,0.,24.0,0.,24.0
1979-07-20 15:11:55.670 ,0,0,,0,,0
1979-07-20 15:12:19.670 ,0,1,0.,24.0,0.,24.0
1979-07-20 15:12:43.670 ,0,0,0.,24.0,0.,24.0
1979-07-20 15:13:07.670 ,1,1,0.,24.0,0.,24.0
1979-07-20 15:13:31.670 ,1,0,0.,24.0,0.,24.0
1979-07-20 15:13:55.670 ,2,1,0.,24.0,0.,24.0
1979-07-20 15:14:19.670 ,2,0,0.,24.0,0.,24.0
1979-07-20 15:14:43.670 ,3,1,0.,24.0,0.,24.0
1979-07-20 15:15:07.670 ,3,0,0.,24.0,0.,24.0
1979-07-20 15:15:31.670 ,4,1,0.,24.0,0.,24.0
1979-07-20 15:15:55.670 ,4,0,0.,24.0,0.,24.0
1979-07-20 15:16:19.670 ,5,1,0.,24.0,0.,24.0
1979-07-20 15:16:43.670 ,5,0,0.,24.0,0.,24.0
1979-07-20 15:17:07.670 ,6,1,0.,24.0,0.,24.0
1979-07-20 15:17:31.670 ,6,0,0.,24.0,0.,24.0
1979-07-20 15:17:55.670 ,7,1,0.,24.0,0.,24.0
1979-07-20 15:18:19.670 ,7,0,0.,24.0,0.,24.0
1979-07-20 15:18:43.670 ,0,0,,0,,0
1979-07-20 15:19:07.670 ,0,0,0.,24.0,0.,24.0
1979-07-20 15:19:31.670 ,6,1,0.,24.0,0.,24.0
1979-07-20 15:19:55.670 ,0,0,,0,,0
1979-07-20 15:20:20.860 ,5,1,0.,24.0,0.,24.0
1979-07-20 15:20:43.670 ,5,0,0.,24.0,0.,24.0
1979-07-20 15:21:07.670 ,4,1,0.,24.0,0.,24.0
1979-07-20 15:21:31.670 ,4,0,0.,24.0,0.,24.0
1979-07-20 15:21:55.670 ,3,1,0.,24.0,0.,24.0
1979-07-20 15:22:19.670 ,3,0,0.,24.0,0.,24.0
1979-07-20 15:22:43.670 ,2,1,0.,24.0,0.,24.0
1979-07-20 15:23:07.670 ,2,0,0.,24.0,0.,24.0
1979-07-20 15:23:31.670 ,1,1,0.,24.0,0.,24.0
1979-07-20 15:23:55.670 ,1,0,0.,24.0,0.,24.0
1979-07-20 15:24:19.670 ,0,1,0.,24.0,0.,24.0
1979-07-20 15:24:43.670 ,0,0,0.,24.0,0.,24.0
1979-07-20 15:25:07.670 ,0,1,0.,24.0,0.,24.0
1979-07-20 15:25:31.670 ,0,0,0.,24.0,0.,24.0
1979-07-20 15:25:55.670 ,1,1,0.,24.0,0.,24.0
1979-07-20 15:26:19.670 ,1,0,0.,24.0,0.,24.0
1979-07-20 15:26:43.670 ,2,1,0.,24.0,0.,24.0
1979-07-20 15:27:07.670 ,2,0,0.,24.0,0.,24.0
1979-07-20 15:27:31.670 ,3,1,0.,24.0,0.,24.0
1979-07-20 15:27:55.670 ,3,0,0.,24.0,0.,24.0
1979-07-20 15:28:19.670 ,4,1,0.,24.0,0.,24.0
1979-07-20 15:28:43.670 ,4,0,0.,24.0,0.,24.0
1979-07-20 15:29:07.670 ,5,1,0.,24.0,0.,24.0
1979-07-20 15:29:31.670 ,5,0,0.,24.0,0.,24.0
1979-07-20 15:29:55.670 ,6,1,0.,24.0,0.,24.0
1979-07-20 15:30:19.670 ,6,0,0.,24.0,0.,24.0
1979-07-20 15:30:43.670 ,7,0,0.,24.0,0.,24.0
1979-07-20 15:31:07.670 ,7,0,0.,24.0,0.,24.0
1979-07-20 15:31:31.670 ,3,1,0.,24.0,0.,24.0
1979-07-20 15:31:55.670 ,0,1,0.,24.0,0.,24.0
1979-07-20 15:32:19.670 ,4,1,0.,24.0,0.,24.0
1979-07-20 15:32:43.670 ,7,1,0.,24.0,0.,24.0
1979-07-20 15:33:07.670 ,3,1,0.,24.0,0.,24.0
1979-07-20 15:33:31.670 ,0,1,0.,24.0,0.,24.0
1979-07-20 15:33:55.670 ,4,1,0.,24.0,0.,24.0
1979-07-20 15:34:19.670 ,7,1,0.,24.0,0.,24.0
1979-07-20 15:34:43.660 ,3,1,0.,24.0,0.,24.0
1979-07-20 15:35:07.660 ,0,1,0.,24.0,0.,24.0
1979-07-20 15:35:31.660 ,4,1,0.,24.0,0.,24.0
1979-07-20 15:35:55.660 ,7,1,0.,24.0,0.,24.0
1979-07-20 15:36:19.660 ,3,1,0.,24.0,0.,24.0
1979-07-20 15:36:43.660 ,0,1,0.,24.0,0.,24.0
1979-07-20 15:37:07.660 ,4,1,0.,24.0,0.,24.0
1979-07-20 15:37:31.660 ,7,1,0.,24.0,0.,24.0
1979-07-20 15:37:55.660 ,3,1,0.,24.0,0.,24.0
1979-07-20 15:38:19.660 ,0,1,0.,24.0,0.,24.0
1979-07-20 15:38:43.660 ,4,1,0.,24.0,0.,24.0
1979-07-20 15:39:07.660 ,7,1,0.,24.0,0.,24.0
1979-07-20 15:39:31.660 ,3,1,0.,24.0,0.,24.0
1979-07-20 15:39:55.660 ,0,1,0.,24.0,0.,24.0
1979-07-20 15:40:19.660 ,4,1,0.,24.0,0.,24.0
1979-07-20 15:40:43.660 ,7,1,0.,24.0,0.,24.0
1979-07-20 15:41:07.660 ,3,1,0.,24.0,0.,24.0
1979-07-20 15:41:31.660 ,0,1,0.,24.0,0.,24.0
1979-07-20 15:41:55.660 ,0,0,0.,24.0,0.,24.0
1979-07-20 15:42:19.660 ,0,0,0.,24.0,0.,24.0
1979-07-20 15:42:43.660 ,5,1,0.,24.0,0.,24.0
1979-07-20 15:43:07.660 ,5,0,0.,24.0,0.,24.0
1979-07-20 15:43:31.660 ,4,1,0.,24.0,0.,24.0
1979-07-20 15:43:55.660 ,4,0,0.,24.0,0.,24.0
1979-07-20 15:44:19.660 ,3,1,0.,24.0,0.,24.0
1979-07-20 15:44:43.660 ,3,0,0.,24.0,0.,24.0
1979-07-20 15:45:07.660 ,2,1,0.,24.0,0.,24.0
1979-07-20 15:45:31.660 ,2,0,0.,24.0,0.,24.0
1979-07-20 15:45:55.660 ,1,1,0.,24.0,0.,24.0
1979-07-20 15:46:19.660 ,1,0,0.,24.0,0.,24.0
1979-07-20 15:46:43.660 ,0,1,0.,24.0,0.,24.0
1979-07-20 15:47:07.660 ,0,0,0.,24.0,0.,24.0
1979-07-20 15:47:31.660 ,0,1,0.,24.0,0.,24.0
1979-07-20 15:47:55.660 ,0,0,0.,24.0,0.,24.0
1979-07-20 15:48:19.660 ,1,1,0.,24.0,0.,24.0
1979-07-20 15:48:43.660 ,1,0,0.,24.0,0.,24.0
1979-07-20 15:49:07.660 ,2,1,0.,24.0,0.,24.0
1979-07-20 15:49:31.660 ,2,0,0.,24.0,0.,24.0
1979-07-20 15:49:55.660 ,3,1,0.,24.0,0.,24.0
1979-07-20 15:50:19.660 ,3,0,0.,24.0,0.,24.0
1979-07-20 15:50:43.660 ,4,1,0.,24.0,0.,24.0
1979-07-20 15:51:07.660 ,4,0,0.,24.0,0.,24.0
1979-07-20 15:51:31.660 ,5,1,0.,24.0,0.,24.0
1979-07-20 15:51:55.660 ,5,0,0.,24.0,0.,24.0
1979-07-20 15:52:19.660 ,6,1,0.,24.0,0.,24.0
1979-07-20 15:52:43.660 ,6,0,0.,24.0,0.,24.0
1979-07-20 15:53:07.660 ,7,1,0.,24.0,0.,24.0
1979-07-20 15:53:31.660 ,7,0,0.,24.0,0.,24.0
1979-07-20 15:53:55.660 ,7,1,0.,24.0,0.,24.0
1979-07-20 15:54:19.660 ,7,0,0.,24.0,0.,24.0
1979-07-20 15:54:43.660 ,0,0,,0,,0
1979-07-20 15:55:07.660 ,0,0,0.,24.0,0.,24.0
1979-07-20 15:55:31.660 ,5,1,0.,24.0,0.,24.0
1979-07-20 15:55:55.660 ,5,0,0.,24.0,0.,24.0
1979-07-20 15:56:19.660 ,4,1,0.,24.0,0.,24.0
1979-07-20 15:56:43.660 ,4,0,0.,24.0,0.,24.0
1979-07-20 15:57:07.660 ,3,1,0.,24.0,0.,24.0
1979-07-20 15:57:31.660 ,3,0,0.,24.0,0.,24.0
1979-07-20 15:57:55.660 ,2,1,0.,24.0,0.,24.0
1979-07-20 15:58:19.660 ,2,0,0.,24.0,0.,24.0
1979-07-20 15:58:43.660 ,1,1,0.,24.0,0.,24.0
1979-07-20 15:59:07.660 ,1,0,0.,24.0,0.,24.0
1979-07-20 15:59:31.660 ,0,1,0.,24.0,0.,24.0
1979-07-20 15:59:55.660 ,0,0,0.,24.0,0.,24.0
1979-07-20 16:00:19.660 ,0,1,0.,24.0,0.,24.0
1979-07-20 16:00:43.660 ,0,0,0.,24.0,0.,24.0
1979-07-20 16:01:07.660 ,1,1,0.,24.0,0.,24.0
1979-07-20 16:01:31.660 ,1,0,0.,24.0,0.,24.0
1979-07-20 16:01:55.660 ,2,1,0.,24.0,0.,24.0
1979-07-20 16:02:19.660 ,2,0,0.,24.0,0.,24.0
1979-07-20 16:02:43.660 ,3,1,0.,24.0,0.,24.0
1979-07-20 16:03:07.660 ,3,0,0.,24.0,0.,24.0
1979-07-20 16:03:31.660 ,4,1,0.,24.0,0.,24.0
1979-07-20 16:03:55.660 ,4,0,0.,24.0,0.,24.0
1979-07-20 16:04:19.660 ,5,1,0.,24.0,0.,24.0
1979-07-20 16:04:43.660 ,5,0,0.,24.0,0.,24.0
1979-07-20 16:05:07.660 ,6,1,0.,24.0,0.,24.0
1979-07-20 16:05:31.660 ,6,0,0.,24.0,0.,24.0
1979-07-20 16:05:55.660 ,7,1,0.,24.0,0.,24.0
1979-07-20 16:06:19.660 ,7,0,0.,24.0,0.,24.0
1979-07-20 16:06:43.660 ,7,1,0.,24.0,0.,24.0
1979-07-20 16:07:07.660 ,7,0,0.,24.0,0.,24.0
1979-07-20 16:07:31.660 ,6,1,0.,24.0,0.,24.0
1979-07-20 16:07:55.660 ,6,0,0.,24.0,0.,24.0
1979-07-20 16:08:19.660 ,5,1,0.,24.0,0.,24.0
1979-07-20 16:08:43.660 ,5,0,0.,24.0,0.,24.0
1979-07-20 16:09:07.660 ,4,1,0.,24.0,0.,24.0
1979-07-20 16:09:31.660 ,4,0,0.,24.0,0.,24.0
1979-07-20 16:09:55.660 ,3,1,0.,24.0,0.,24.0
1979-07-20 16:10:19.660 ,3,0,0.,24.0,0.,24.0
1979-07-20 16:10:43.660 ,2,1,0.,24.0,0.,24.0
1979-07-20 16:11:07.660 ,2,0,0.,24.0,0.,24.0
1979-07-20 16:11:31.660 ,1,1,0.,24.0,0.,24.0
1979-07-20 16:11:55.660 ,1,0,0.,24.0,0.,24.0
1979-07-20 16:12:19.660 ,0,1,0.,24.0,0.,24.0
1979-07-20 16:12:43.660 ,0,0,0.,24.0,0.,24.0
1979-07-20 16:13:07.660 ,0,1,0.,24.0,0.,24.0
1979-07-20 16:13:31.660 ,0,0,0.,24.0,0.,24.0
1979-07-20 16:13:55.660 ,1,1,0.,24.0,0.,24.0
1979-07-20 16:14:19.660 ,1,0,0.,24.0,0.,24.0
1979-07-20 16:14:43.660 ,2,1,0.,24.0,0.,24.0
1979-07-20 16:15:07.660 ,2,0,0.,24.0,0.,24.0
1979-07-20 16:15:31.660 ,3,1,0.,24.0,0.,24.0
1979-07-20 16:15:55.660 ,3,0,0.,24.0,0.,24.0
1979-07-20 16:16:19.660 ,4,1,0.,24.0,0.,24.0
1979-07-20 16:16:43.660 ,4,0,0.,24.0,0.,24.0
1979-07-20 16:17:07.660 ,5,1,0.,24.0,0.,24.0
1979-07-20 16:17:31.660 ,5,0,0.,24.0,0.,24.0
1979-07-20 16:17:55.660 ,6,1,0.,24.0,0.,24.0
1979-07-20 16:18:19.660 ,6,0,0.,24.0,0.,24.0
1979-07-20 16:18:43.660 ,7,0,0.,24.0,0.,24.0
1979-07-20 16:19:07.660 ,7,0,0.,24.0,0.,24.0
1979-07-20 16:19:31.660 ,3,1,0.,24.0,0.,24.0
1979-07-20 16:19:55.660 ,0,1,0.,24.0,0.,24.0
1979-07-20 16:20:19.660 ,4,1,0.,24.0,0.,24.0
1979-07-20 16:20:43.660 ,7,1,0.,24.0,0.,24.0
1979-07-20 16:21:07.660 ,3,1,0.,24.0,0.,24.0
1979-07-20 16:21:31.660 ,0,1,0.,24.0,0.,24.0
1979-07-20 16:21:55.660 ,4,1,0.,24.0,0.,24.0
1979-07-20 16:22:19.660 ,7,1,0.,24.0,0.,24.0
1979-07-20 16:22:43.660 ,3,1,0.,24.0,0.,24.0
1979-07-20 16:23:07.660 ,0,1,0.,24.0,0.,24.0
1979-07-20 16:23:31.660 ,4,1,0.,24.0,0.,24.0
1979-07-20 16:23:55.660 ,7,1,0.,24.0,0.,24.0
1979-07-20 16:24:19.660 ,3,1,0.,24.0,0.,24.0
1979-07-20 16:24:43.660 ,0,1,0.,24.0,0.,24.0
1979-07-20 16:25:07.660 ,4,1,0.,24.0,0.,24.0
1979-07-20 16:25:31.660 ,7,1,0.,24.0,0.,24.0
1979-07-20 16:25:55.660 ,3,1,0.,24.0,0.,24.0
1979-07-20 16:26:19.660 ,0,1,0.,24.0,0.,24.0
1979-07-20 16:26:43.660 ,4,1,0.,24.0,0.,24.0
1979-07-20 16:27:07.660 ,7,1,0.,24.0,0.,24.0
1979-07-20 16:27:31.660 ,3,1,0.,24.0,0.,24.0
1979-07-20 16:27:55.660 ,0,1,0.,24.0,0.,24.0
1979-07-20 16:28:19.660 ,4,1,0.,24.0,0.,24.0
1979-07-20 16:28:43.660 ,7,1,0.,24.0,0.,24.0
1979-07-20 16:29:07.660 ,3,1,0.,24.0,0.,24.0
1979-07-20 16:29:31.660 ,0,1,0.,24.0,0.,24.0
1979-07-20 16:29:55.660 ,0,0,0.,24.0,0.,24.0
1979-07-20 16:30:19.660 ,0,0,0.,24.0,0.,24.0
1979-07-20 16:30:43.660 ,5,1,0.,24.0,0.,24.0
1979-07-20 16:31:07.660 ,5,0,0.,24.0,0.,24.0
1979-07-20 16:31:31.660 ,4,1,0.,24.0,0.,24.0
1979-07-20 16:31:55.660 ,4,0,0.,24.0,0.,24.0
1979-07-20 16:32:19.660 ,3,1,0.,24.0,0.,24.0
1979-07-20 16:32:43.660 ,3,0,0.,24.0,0.,24.0
1979-07-20 16:33:07.660 ,2,1,0.,24.0,0.,24.0
1979-07-20 16:33:31.660 ,2,0,0.,24.0,0.,24.0
1979-07-20 16:33:55.660 ,1,1,0.,24.0,0.,24.0
1979-07-20 16:34:19.660 ,1,0,0.,24.0,0.,24.0
1979-07-20 16:34:43.660 ,0,1,0.,24.0,0.,24.0
1979-07-20 16:35:07.660 ,0,0,0.,24.0,0.,24.0
1979-07-20 16:35:31.660 ,0,1,0.,24.0,0.,24.0
1979-07-20 16:35:55.660 ,0,0,0.,24.0,0.,24.0
1979-07-20 16:36:19.660 ,1,1,0.,24.0,0.,24.0
1979-07-20 16:36:43.660 ,1,0,0.,24.0,0.,24.0
1979-07-20 16:37:07.660 ,2,1,0.,24.0,0.,24.0
1979-07-20 16:37:31.660 ,2,0,0.,24.0,0.,24.0
1979-07-20 16:37:55.660 ,3,1,0.,24.0,0.,24.0
1979-07-20 16:38:19.660 ,3,0,0.,24.0,0.,24.0
1979-07-20 16:38:43.660 ,4,1,0.,24.0,0.,24.0
1979-07-20 16:39:07.660 ,4,0,0.,24.0,0.,24.0
1979-07-20 16:39:31.660 ,5,1,0.,24.0,0.,24.0
1979-07-20 16:39:55.660 ,5,0,0.,24.0,0.,24.0
1979-07-20 16:40:19.660 ,6,1,0.,24.0,0.,24.0
1979-07-20 16:40:43.660 ,6,0,0.,24.0,0.,24.0
1979-07-20 16:41:07.660 ,7,1,0.,24.0,0.,24.0
1979-07-20 16:41:31.660 ,7,0,0.,24.0,0.,24.0
1979-07-20 16:41:55.660 ,7,1,0.,24.0,0.,24.0
1979-07-20 16:42:19.660 ,7,0,0.,24.0,0.,24.0
1979-07-20 16:42:43.660 ,6,1,0.,24.0,0.,24.0
1979-07-20 16:43:07.660 ,6,0,0.,24.0,0.,24.0
1979-07-20 16:43:31.660 ,5,1,0.,24.0,0.,24.0
1979-07-20 16:43:55.660 ,5,0,0.,24.0,0.,24.0
1979-07-20 16:44:19.660 ,4,1,0.,24.0,0.,24.0
1979-07-20 16:44:43.660 ,4,0,0.,24.0,0.,24.0
1979-07-20 16:45:07.660 ,3,1,0.,24.0,0.,24.0
1979-07-20 16:45:31.660 ,3,0,0.,24.0,0.,24.0
1979-07-20 16:45:55.660 ,2,1,0.,24.0,0.,24.0
1979-07-20 16:46:19.660 ,2,0,0.,24.0,0.,24.0
1979-07-20 16:46:43.660 ,1,1,0.,24.0,0.,24.0
1979-07-20 16:47:07.660 ,1,0,0.,24.0,0.,24.0
1979-07-20 16:47:31.660 ,0,1,0.,24.0,0.,24.0
1979-07-20 16:47:55.660 ,0,0,0.,24.0,0.,24.0
1979-07-20 16:48:19.660 ,0,1,0.,24.0,0.,24.0
1979-07-20 16:48:43.660 ,0,0,0.,24.0,0.,24.0
1979-07-20 16:49:07.660 ,1,1,0.,24.0,0.,24.0
1979-07-20 16:49:31.660 ,1,0,0.,24.0,0.,24.0
1979-07-20 16:49:55.660 ,2,1,0.,24.0,0.,24.0
1979-07-20 16:50:19.660 ,2,0,0.,24.0,0.,24.0
1979-07-20 16:50:43.660 ,3,1,0.,24.0,0.,24.0
1979-07-20 16:51:07.660 ,3,0,0.,24.0,0.,24.0
1979-07-20 16:51:31.660 ,4,1,0.,24.0,0.,24.0
1979-07-20 16:51:55.660 ,4,0,0.,24.0,0.,24.0
1979-07-20 16:52:19.660 ,5,1,0.,24.0,0.,24.0
1979-07-20 16:52:43.660 ,5,0,0.,24.0,0.,24.0
1979-07-20 16:53:07.660 ,6,1,0.,24.0,0.,24.0
1979-07-20 16:53:31.660 ,6,0,0.,24.0,0.,24.0
1979-07-20 16:53:55.660 ,7,1,0.,24.0,0.,24.0
1979-07-20 16:54:19.660 ,7,0,0.,24.0,0.,24.0
1979-07-20 16:54:43.660 ,7,1,0.,24.0,0.,24.0
1979-07-20 16:55:07.660 ,7,0,0.,24.0,0.,24.0
1979-07-20 16:55:31.660 ,6,1,0.,24.0,0.,24.0
1979-07-20 16:55:55.660 ,6,0,0.,24.0,0.,24.0
1979-07-20 16:56:19.660 ,5,1,0.,24.0,0.,24.0
1979-07-20 16:56:43.660 ,5,0,0.,24.0,0.,24.0
1979-07-20 16:57:07.660 ,4,1,0.,24.0,0.,24.0
1979-07-20 16:57:31.660 ,4,0,0.,24.0,0.,24.0
1979-07-20 16:57:55.660 ,3,1,0.,24.0,0.,24.0
1979-07-20 16:58:19.660 ,3,0,0.,24.0,0.,24.0
1979-07-20 16:58:43.660 ,2,1,0.,24.0,0.,24.0
1979-07-20 16:59:07.660 ,2,0,0.,24.0,0.,24.0
1979-07-20 16:59:31.660 ,1,1,0.,24.0,0.,24.0
1979-07-20 16:59:55.660 ,1,0,0.,24.0,0.,24.0
1979-07-20 17:00:19.660 ,0,1,0.,24.0,0.,24.0
1979-07-20 17:00:43.660 ,0,0,0.,24.0,0.,24.0
1979-07-20 17:01:07.660 ,0,1,0.,24.0,0.,24.0
1979-07-20 17:01:31.660 ,0,0,0.,24.0,0.,24.0
1979-07-20 17:01:55.660 ,1,1,0.,24.0,0.,24.0
1979-07-20 17:02:19.660 ,1,0,0.,24.0,0.,24.0
1979-07-20 17:02:43.660 ,2,1,0.,24.0,0.,24.0
1979-07-20 17:03:07.660 ,2,0,0.,24.0,0.,24.0
1979-07-20 17:03:31.660 ,3,1,0.,24.0,0.,24.0
1979-07-20 17:03:55.660 ,3,0,1.,24.0,0.,24.0
1979-07-20 17:04:19.660 ,4,1,0.,24.0,0.,24.0
1979-07-20 17:04:43.660 ,4,0,0.,24.0,0.,24.0
1979-07-20 17:05:07.660 ,5,1,0.,24.0,0.,24.0
1979-07-20 17:05:31.660 ,5,0,0.,24.0,0.,24.0
1979-07-20 17:05:55.660 ,6,1,0.,24.0,0.,24.0
1979-07-20 17:06:19.660 ,6,0,0.,24.0,0.,24.0
1979-07-20 17:06:43.660 ,7,0,0.,24.0,0.,24.0
1979-07-20 17:07:07.660 ,7,0,0.,24.0,0.,24.0
1979-07-20 17:07:31.660 ,3,1,0.,24.0,0.,24.0
1979-07-20 17:07:55.660 ,0,1,0.,24.0,0.,24.0
1979-07-20 17:08:19.660 ,4,1,0.,24.0,0.,24.0
1979-07-20 17:08:43.660 ,7,1,0.,24.0,0.,24.0
1979-07-20 17:09:07.660 ,3,1,0.,24.0,0.,24.0
1979-07-20 17:09:31.660 ,0,1,0.,24.0,0.,24.0
1979-07-20 17:09:55.660 ,4,1,0.,24.0,0.,24.0
1979-07-20 17:10:19.660 ,7,1,0.,24.0,0.,24.0
1979-07-20 17:10:43.660 ,3,1,0.,24.0,0.,24.0
1979-07-20 17:11:07.660 ,0,1,0.,24.0,0.,24.0
1979-07-20 17:11:31.660 ,4,1,0.,24.0,0.,24.0
1979-07-20 17:11:55.660 ,7,1,0.,24.0,0.,24.0
1979-07-20 17:12:19.660 ,3,1,0.,24.0,0.,24.0
1979-07-20 17:12:43.660 ,0,1,0.,24.0,0.,24.0
1979-07-20 17:13:07.660 ,4,1,0.,24.0,0.,24.0
1979-07-20 17:13:31.660 ,7,1,0.,24.0,0.,24.0
1979-07-20 17:13:55.660 ,3,1,0.,24.0,0.,24.0
1979-07-20 17:14:19.660 ,0,1,0.,24.0,0.,24.0
1979-07-20 17:14:43.660 ,4,1,0.,24.0,0.,24.0
1979-07-20 17:15:07.660 ,7,1,0.,24.0,0.,24.0
1979-07-20 17:15:31.660 ,3,1,0.,24.0,0.,24.0
1979-07-20 17:15:55.660 ,0,1,0.,24.0,0.,24.0
1979-07-20 17:16:19.660 ,4,1,0.,24.0,0.,24.0
1979-07-20 17:16:43.660 ,7,1,0.,24.0,0.,24.0
1979-07-20 17:17:07.660 ,3,1,0.,24.0,0.,24.0
1979-07-20 17:17:31.660 ,0,1,0.,24.0,0.,24.0
1979-07-20 17:17:55.660 ,0,0,0.,24.0,0.,24.0
1979-07-20 17:18:19.660 ,0,0,0.,24.0,0.,24.0
1979-07-20 17:18:43.660 ,5,1,0.,24.0,0.,24.0
1979-07-20 17:19:07.660 ,5,0,0.,24.0,0.,24.0
1979-07-20 17:19:31.660 ,4,1,0.,24.0,0.,24.0
1979-07-20 17:19:55.660 ,4,0,0.,24.0,0.,24.0
1979-07-20 17:20:19.660 ,3,1,0.,24.0,0.,24.0
1979-07-20 17:20:43.660 ,3,0,0.,24.0,0.,24.0
1979-07-20 17:21:07.660 ,2,1,0.,24.0,0.,24.0
1979-07-20 17:21:31.660 ,2,0,0.,24.0,0.,24.0
1979-07-20 17:21:55.660 ,1,1,0.,24.0,0.,24.0
1979-07-20 17:22:19.660 ,1,0,0.,24.0,0.,24.0
1979-07-20 17:22:43.660 ,0,1,0.,24.0,0.,24.0
1979-07-20 17:23:07.660 ,0,0,0.,24.0,0.,24.0
1979-07-20 17:23:31.660 ,0,1,0.,24.0,0.,24.0
1979-07-20 17:23:55.660 ,0,0,0.,24.0,0.,24.0
1979-07-20 17:24:19.660 ,1,1,0.,24.0,0.,24.0
1979-07-20 17:24:43.660 ,1,0,0.,24.0,0.,24.0
1979-07-20 17:25:07.660 ,2,1,0.,24.0,0.,24.0
1979-07-20 17:25:31.660 ,2,0,0.,24.0,0.,24.0
1979-07-20 17:25:55.660 ,3,1,0.,24.0,0.,24.0
1979-07-20 17:26:19.660 ,3,0,0.,24.0,0.,24.0
1979-07-20 17:26:43.660 ,4,1,0.,24.0,0.,24.0
1979-07-20 17:27:07.660 ,4,0,0.,24.0,0.,24.0
1979-07-20 17:27:31.660 ,5,1,0.,24.0,0.,24.0
1979-07-20 17:27:55.660 ,5,0,0.,24.0,0.,24.0
1979-07-20 17:28:19.660 ,6,1,0.,24.0,0.,24.0
1979-07-20 17:28:43.660 ,6,0,0.,24.0,0.,24.0
1979-07-20 17:29:07.660 ,7,1,0.,24.0,0.,24.0
1979-07-20 17:29:31.660 ,7,0,0.,24.0,0.,24.0
1979-07-20 17:29:55.660 ,7,1,0.,24.0,0.,24.0
1979-07-20 17:30:19.660 ,7,0,0.,24.0,0.,24.0
1979-07-20 17:30:43.660 ,6,1,0.,24.0,0.,24.0
1979-07-20 17:31:07.660 ,6,0,0.,24.0,0.,24.0
1979-07-20 17:31:31.660 ,5,1,0.,24.0,0.,24.0
1979-07-20 17:31:55.660 ,5,0,0.,24.0,0.,24.0
1979-07-20 17:32:19.660 ,4,1,0.,24.0,0.,24.0
1979-07-20 17:32:43.660 ,4,0,0.,24.0,0.,24.0
1979-07-20 17:33:07.660 ,3,1,0.,24.0,0.,24.0
1979-07-20 17:33:31.660 ,3,0,0.,24.0,0.,24.0
1979-07-20 17:33:55.660 ,2,1,0.,24.0,0.,24.0
1979-07-20 17:34:19.660 ,2,0,0.,24.0,0.,24.0
1979-07-20 17:34:43.660 ,1,1,0.,24.0,0.,24.0
1979-07-20 17:35:07.660 ,1,0,0.,24.0,0.,24.0
1979-07-20 17:35:31.660 ,0,1,0.,24.0,0.,24.0
1979-07-20 17:35:55.660 ,0,0,0.,24.0,0.,24.0
1979-07-20 17:36:19.660 ,0,1,0.,24.0,0.,24.0
1979-07-20 17:36:43.660 ,0,0,0.,24.0,0.,24.0
1979-07-20 17:37:07.660 ,1,1,0.,24.0,0.,24.0
1979-07-20 17:37:31.660 ,1,0,0.,24.0,0.,24.0
1979-07-20 17:37:55.660 ,2,1,0.,24.0,0.,24.0
1979-07-20 17:38:19.660 ,2,0,0.,24.0,0.,24.0
1979-07-20 17:38:43.660 ,3,1,0.,24.0,0.,24.0
1979-07-20 17:39:07.660 ,3,0,0.,24.0,0.,24.0
1979-07-20 17:39:31.660 ,4,1,0.,24.0,0.,24.0
1979-07-20 17:39:55.660 ,4,0,0.,24.0,0.,24.0
1979-07-20 17:40:19.660 ,5,1,0.,24.0,0.,24.0
1979-07-20 17:40:43.660 ,0,0,0.,24.0,0.,24.0
1979-07-20 17:41:08.860 ,6,1,0.,24.0,0.,24.0
1979-07-20 17:41:31.660 ,6,0,0.,24.0,0.,24.0
1979-07-20 17:41:55.660 ,7,1,0.,24.0,0.,24.0
1979-07-20 17:42:19.660 ,7,0,0.,24.0,0.,24.0
1979-07-20 17:42:43.660 ,7,1,0.,24.0,0.,24.0
1979-07-20 17:43:07.660 ,7,0,0.,24.0,0.,24.0
1979-07-20 17:43:31.660 ,6,1,0.,24.0,0.,24.0
1979-07-20 17:43:55.660 ,6,0,0.,24.0,0.,24.0
1979-07-20 17:44:19.660 ,5,1,0.,24.0,0.,24.0
1979-07-20 17:44:43.660 ,5,0,0.,24.0,0.,24.0
1979-07-20 17:45:07.660 ,4,1,0.,24.0,0.,24.0
1979-07-20 17:45:31.660 ,4,0,0.,24.0,0.,24.0
1979-07-20 17:45:55.660 ,3,1,0.,24.0,0.,24.0
1979-07-20 17:46:19.660 ,3,0,0.,24.0,0.,24.0
1979-07-20 17:46:43.660 ,2,1,0.,24.0,0.,24.0
1979-07-20 17:47:07.660 ,2,0,0.,24.0,0.,24.0
1979-07-20 17:47:31.660 ,1,1,0.,24.0,0.,24.0
1979-07-20 17:47:55.660 ,1,0,0.,24.0,0.,24.0
1979-07-20 17:48:19.660 ,0,1,0.,24.0,0.,24.0
1979-07-20 17:48:43.660 ,0,0,0.,24.0,0.,24.0
1979-07-20 17:49:07.660 ,0,1,0.,24.0,0.,24.0
1979-07-20 17:49:31.660 ,0,0,0.,24.0,0.,24.0
1979-07-20 17:49:55.660 ,1,1,0.,24.0,0.,24.0
1979-07-20 17:50:19.660 ,1,0,0.,24.0,0.,24.0
1979-07-20 17:50:43.660 ,2,1,0.,24.0,0.,24.0
1979-07-20 17:51:07.660 ,2,0,0.,24.0,0.,24.0
1979-07-20 17:51:31.660 ,3,1,0.,24.0,0.,24.0
1979-07-20 17:51:55.660 ,3,0,0.,24.0,0.,24.0
1979-07-20 17:52:19.660 ,4,1,0.,24.0,0.,24.0
1979-07-20 17:52:43.660 ,4,0,0.,24.0,0.,24.0
1979-07-20 17:53:07.660 ,5,1,0.,24.0,0.,24.0
1979-07-20 17:53:31.660 ,5,0,0.,24.0,0.,24.0
1979-07-20 17:53:55.660 ,6,1,0.,24.0,0.,24.0
1979-07-20 17:54:19.660 ,6,0,0.,24.0,0.,24.0
1979-07-20 17:54:43.660 ,7,0,0.,24.0,0.,24.0
1979-07-20 17:55:07.660 ,7,0,0.,24.0,0.,24.0
1979-07-20 17:55:31.660 ,3,1,0.,24.0,0.,24.0
1979-07-20 17:55:55.660 ,0,1,0.,24.0,0.,24.0
1979-07-20 17:56:19.660 ,4,1,0.,24.0,0.,24.0
1979-07-20 17:56:43.660 ,7,1,0.,24.0,0.,24.0
1979-07-20 17:57:07.660 ,3,1,0.,24.0,0.,24.0
1979-07-20 17:57:31.660 ,0,1,0.,24.0,0.,24.0
1979-07-20 17:57:55.660 ,4,1,0.,24.0,0.,24.0
1979-07-20 17:58:19.660 ,7,1,0.,24.0,0.,24.0
1979-07-20 17:58:43.660 ,3,1,0.,24.0,0.,24.0
1979-07-20 17:59:07.660 ,0,1,0.,24.0,0.,24.0
1979-07-20 17:59:31.660 ,4,1,0.,24.0,0.,24.0
1979-07-20 17:59:55.660 ,7,1,0.,24.0,0.,24.0
1979-07-20 18:00:19.660 ,3,1,0.,24.0,0.,24.0
